Fort Smith, AR

3:38 PM CDT on August 30, 2016 (GMT -0500)
Fort Smith Regional

Weather History for KFSM - January, 2014

Change the Weather History Date:

Saturday, January 18, 2014

  Actual Average Record
Temperature  
Mean Temperature 45 °F 39 °F  
Max Temperature 65 °F 50 °F 72 °F (1951)
Min Temperature 24 °F 29 °F -9 °F (1930)
Degree Days  
Heating Degree Days 20 26  
Month to date heating degree days 492 468  
Since 1 July heating degree days 1879 1767  
Moisture  
Dew Point 21 °F    
Average Humidity 45    
Maximum Humidity 69    
Minimum Humidity 21    
Precipitation  
Precipitation 0.00 in 0.10 in 1.36 in (1996)
Month to date precipitation 0.79 1.60  
Year to date precipitation 0.79 1.60  
Sea Level Pressure  
Sea Level Pressure 30.03 in    
Wind  
Wind Speed 11 mph (NNW)    
Max Wind Speed 31 mph    
Max Gust Speed 39 mph    
Visibility 10 miles    
Events      
T = Trace of Precipitation, MM = Missing Value Source: NWS Daily Summary

Daily Weather History Graph

Daily Weather History Graph

Search for Another Location

Airport or City:

Trip Planner

Search our weather history database for the weather conditions in past years. The results will help you decide how hot, cold, wet, or windy it might be!

Date:

Astronomy

Jan. 18, 2014 Rise Set
Actual Time 7:24 AM CST 5:31 PM CST
Civil Twilight 6:57 AM CST 5:58 PM CST
Nautical Twilight 6:26 AM CST 6:29 PM CST
Astronomical Twilight 5:55 AM CST 7:00 PM CST
Moon 8:06 PM CST (1/18) 8:31 AM CST (1/18)
Length of Visible Light 11h 01m
Length of Day
10h 06m
Waning Gibbous, 94% of the Moon is Illuminated
Jan 18
Waning Gibbous
Jan 23
Last Quarter
Jan 30
New
Feb 6
First Quarter
Feb 14
Full

Hourly Weather History & Observations

Time (CST) Temp. Windchill Dew Point Humidity Pressure Visibility Wind Dir Wind Speed Gust Speed Precip Events Conditions
12:53 AM 28.9 °F 23.9 °F 18.0 °F 64% 30.16 in 10.0 mi NE 4.6 mph - N/A   Clear
1:53 AM 27.0 °F 21.6 °F 17.1 °F 66% 30.14 in 10.0 mi ENE 4.6 mph - N/A   Clear
2:53 AM 27.0 °F 23.0 °F 16.0 °F 63% 30.13 in 10.0 mi NE 3.5 mph - N/A   Clear
3:53 AM 26.1 °F 20.5 °F 17.1 °F 69% 30.11 in 10.0 mi NE 4.6 mph - N/A   Clear
4:53 AM 26.1 °F 20.5 °F 16.0 °F 66% 30.09 in 10.0 mi NE 4.6 mph - N/A   Clear
5:53 AM 24.1 °F - 16.0 °F 71% 30.08 in 10.0 mi Calm Calm - N/A   Clear
6:53 AM 26.1 °F 21.9 °F 17.1 °F 69% 30.06 in 10.0 mi ENE 3.5 mph - N/A   Clear
7:53 AM 26.1 °F 20.5 °F 18.0 °F 71% 30.04 in 10.0 mi NNE 4.6 mph - N/A   Clear
8:53 AM 30.0 °F 24.1 °F 19.9 °F 66% 30.03 in 10.0 mi ENE 5.8 mph - N/A   Clear
9:53 AM 37.0 °F - 21.9 °F 54% 30.01 in 10.0 mi Calm Calm - N/A   Clear
10:53 AM 48.9 °F - 24.1 °F 38% 29.99 in 10.0 mi West 9.2 mph - N/A   Clear
11:53 AM 60.1 °F - 25.0 °F 26% 29.94 in 10.0 mi West 21.9 mph 28.8 mph N/A   Clear
12:53 PM 60.1 °F - 24.1 °F 25% 29.89 in 10.0 mi West 25.3 mph 33.4 mph N/A   Clear
1:53 PM 62.1 °F - 25.0 °F 24% 29.87 in 10.0 mi West 24.2 mph 31.1 mph N/A   Clear
2:53 PM 64.0 °F - 24.1 °F 22% 29.89 in 10.0 mi West 23.0 mph 29.9 mph N/A   Clear
3:53 PM 63.0 °F - 23.0 °F 22% 29.91 in 10.0 mi WNW 21.9 mph 28.8 mph N/A   Clear
4:53 PM 61.0 °F - 23.0 °F 23% 29.94 in 10.0 mi West 15.0 mph 24.2 mph N/A   Clear
5:53 PM 57.0 °F - 21.0 °F 25% 30.00 in 10.0 mi NW 17.3 mph 23.0 mph N/A   Clear
6:53 PM 53.1 °F - 21.0 °F 29% 30.02 in 10.0 mi NW 8.1 mph - N/A   Clear
7:53 PM 52.0 °F - 23.0 °F 32% 30.06 in 10.0 mi NW 9.2 mph - N/A   Clear
8:53 PM 50.0 °F - 23.0 °F 35% 30.09 in 10.0 mi NW 12.7 mph 18.4 mph N/A   Clear
9:53 PM 48.9 °F - 23.0 °F 36% 30.11 in 10.0 mi NW 10.4 mph 19.6 mph N/A   Clear
10:53 PM 46.0 °F 40.2 °F 23.0 °F 40% 30.12 in 10.0 mi NW 12.7 mph - N/A   Clear
11:53 PM 46.0 °F 39.6 °F 24.1 °F 42% 30.12 in 10.0 mi NNW 15.0 mph 21.9 mph N/A   Clear